Location: Czu?�w
(50.1404°N, 18.9919°E)
Time: 03:30:01
(UTC+00:00)

Cosmos 1745 Rocket - Pass Details

Date: 27 October 2020
Orbit: 953 x 997 km, 83.0° (Epoch: 27 November)

Event Time Altitude Azimuth Distance (km) Brightness Sun altitude
Rises 17:15:39 0° 350° (N) 3,689 7.2 -17.7°
Reaches altitude 10° 17:18:10 10° 351° (N) 2,744 6.5 -18.1°
Maximum altitude 17:24:29 83° 80° (E) 1,001 3.9 -19.1°
Drops below altitude 10° 17:30:49 10° 169° (S) 2,751 6.2 -20.1°
Sets 17:33:20 0° 171° (S) 3,700 6.9 -20.5°
